• Em Portugal
  • Lista de países
  • Para 7 dias
  • Temperatura da água
  • Mapas de satélite
  • Mapa do tempo
  • Widgets de tempo
  • user-avatar
    Iniciar Sessão

    Previsão horária em Salta

    Hoje, 23 Fevereiro, Sexta-feira

    Tempo Temperatura Precipitação Vento Pressão Humidade
    00:00 +17°C° 0 mm 0 m/s 652 mmHg 77%
    01:00 +18°C° 0 mm 1 m/s 651 mmHg 78%
    02:00 +18°C° 0 mm 1 m/s 651 mmHg 79%
    03:00 +18°C° 0 mm 1 m/s 650 mmHg 80%
    04:00 +16°C° 0 mm 1 m/s 650 mmHg 80%
    05:00 +16°C° 0 mm 1 m/s 650 mmHg 80%
    06:00 +19°C° 0 mm 1 m/s 651 mmHg 75%
    07:00 +20°C° 0 mm 1 m/s 651 mmHg 69%
    08:00 +21°C° 0 mm 1 m/s 652 mmHg 64%
    09:00 +23°C° 0 mm 2 m/s 652 mmHg 58%
    10:00 +25°C° 0 mm 2 m/s 653 mmHg 52%
    11:00 +26°C° 0 mm 3 m/s 653 mmHg 46%
    12:00 +27°C° 0,1 mm 3 m/s 652 mmHg 45%
    13:00 +28°C° 0,1 mm 3 m/s 652 mmHg 44%
    14:00 +28°C° 0,1 mm 3 m/s 652 mmHg 43%
    15:00 +28°C° 0,2 mm 3 m/s 651 mmHg 46%
    16:00 +27°C° 0,2 mm 3 m/s 651 mmHg 48%
    17:00 +27°C° 0,2 mm 3 m/s 650 mmHg 50%
    18:00 +25°C° 0 mm 3 m/s 650 mmHg 57%
    19:00 +23°C° 0 mm 2 m/s 650 mmHg 64%
    20:00 +21°C° 0 mm 1 m/s 650 mmHg 71%
    21:00 +20°C° 0 mm 1 m/s 650 mmHg 72%
    22:00 +20°C° 0 mm 1 m/s 651 mmHg 74%
    23:00 +20°C° 0 mm 1 m/s 651 mmHg 75%

    Amanhã, 24 Fevereiro, Sábado

    Tempo Temperatura Precipitação Vento Pressão Humidade
    00:00 +19°C° 0 mm 1 m/s 651 mmHg 76%
    01:00 +19°C° 0 mm 1 m/s 651 mmHg 76%
    02:00 +18°C° 0 mm 1 m/s 651 mmHg 77%
    03:00 +18°C° 0 mm 1 m/s 651 mmHg 77%
    04:00 +18°C° 0 mm 1 m/s 650 mmHg 77%
    05:00 +18°C° 0 mm 1 m/s 650 mmHg 77%
    06:00 +19°C° 0 mm 1 m/s 651 mmHg 72%
    07:00 +21°C° 0 mm 1 m/s 652 mmHg 67%
    08:00 +22°C° 0 mm 1 m/s 653 mmHg 62%
    09:00 +24°C° 0 mm 1 m/s 653 mmHg 57%
    10:00 +26°C° 0 mm 2 m/s 654 mmHg 52%
    11:00 +27°C° 0 mm 2 m/s 654 mmHg 46%
    12:00 +28°C° 0,1 mm 2 m/s 654 mmHg 46%
    13:00 +28°C° 0,1 mm 3 m/s 653 mmHg 46%
    14:00 +28°C° 0,1 mm 3 m/s 653 mmHg 46%
    15:00 +27°C° 0,1 mm 3 m/s 652 mmHg 50%
    16:00 +26°C° 0,1 mm 2 m/s 652 mmHg 54%
    17:00 +25°C° 0,1 mm 2 m/s 651 mmHg 57%
    18:00 +24°C° 0,1 mm 2 m/s 651 mmHg 62%
    19:00 +22°C° 0,1 mm 1 m/s 651 mmHg 68%
    20:00 +21°C° 0,1 mm 1 m/s 651 mmHg 73%
    21:00 +21°C° 0,2 mm 1 m/s 652 mmHg 73%
    22:00 +20°C° 0,2 mm 1 m/s 652 mmHg 74%
    23:00 +20°C° 0,2 mm 1 m/s 653 mmHg 75%

    Depois de amanhã, 25 Fevereiro, Domingo

    Tempo Temperatura Precipitação Vento Pressão Humidade
    00:00 +20°C° 0,1 mm 1 m/s 653 mmHg 75%
    01:00 +20°C° 0,1 mm 1 m/s 652 mmHg 75%
    02:00 +19°C° 0,1 mm 1 m/s 652 mmHg 76%
    03:00 +19°C° 0,1 mm 1 m/s 652 mmHg 76%
    04:00 +19°C° 0,1 mm 1 m/s 652 mmHg 77%
    05:00 +18°C° 0,1 mm 1 m/s 652 mmHg 77%
    06:00 +20°C° 0 mm 1 m/s 652 mmHg 73%
    07:00 +21°C° 0 mm 1 m/s 653 mmHg 68%
    08:00 +22°C° 0 mm 1 m/s 654 mmHg 64%
    09:00 +24°C° 0 mm 1 m/s 654 mmHg 58%
    10:00 +26°C° 0 mm 2 m/s 654 mmHg 53%
    11:00 +27°C° 0 mm 2 m/s 655 mmHg 48%
    12:00 +27°C° 0 mm 3 m/s 654 mmHg 48%
    13:00 +28°C° 0 mm 3 m/s 653 mmHg 48%
    14:00 +28°C° 0 mm 3 m/s 652 mmHg 48%
    15:00 +27°C° 0,1 mm 3 m/s 652 mmHg 50%
    16:00 +27°C° 0,1 mm 3 m/s 651 mmHg 52%
    17:00 +26°C° 0,1 mm 3 m/s 651 mmHg 54%
    18:00 +25°C° 0,2 mm 2 m/s 651 mmHg 59%
    19:00 +23°C° 0,2 mm 1 m/s 651 mmHg 65%
    20:00 +22°C° 0,2 mm 1 m/s 651 mmHg 70%
    21:00 +21°C° 0,1 mm 1 m/s 652 mmHg 72%
    22:00 +21°C° 0,1 mm 1 m/s 652 mmHg 73%
    23:00 +20°C° 0,1 mm 1 m/s 652 mmHg 75%

    26 Fevereiro, Segunda-feira

    Tempo Temperatura Precipitação Vento Pressão Humidade
    00:00 +20°C° 0 mm 1 m/s 652 mmHg 76%
    01:00 +20°C° 0 mm 1 m/s 651 mmHg 76%
    02:00 +19°C° 0 mm 1 m/s 651 mmHg 77%
    03:00 +19°C° 0 mm 1 m/s 651 mmHg 77%
    04:00 +19°C° 0 mm 1 m/s 651 mmHg 78%
    05:00 +19°C° 0 mm 1 m/s 651 mmHg 78%
    06:00 +20°C° 0 mm 1 m/s 651 mmHg 74%
    07:00 +21°C° 0 mm 1 m/s 652 mmHg 69%
    08:00 +22°C° 0 mm 1 m/s 653 mmHg 65%
    09:00 +24°C° 0 mm 2 m/s 653 mmHg 60%
    10:00 +25°C° 0 mm 2 m/s 653 mmHg 55%
    11:00 +27°C° 0 mm 3 m/s 653 mmHg 49%
    12:00 +28°C° 0,1 mm 3 m/s 652 mmHg 49%
    13:00 +28°C° 0,1 mm 3 m/s 652 mmHg 48%
    14:00 +29°C° 0,1 mm 3 m/s 651 mmHg 47%
    15:00 +28°C° 0,3 mm 3 m/s 650 mmHg 50%
    16:00 +27°C° 0,3 mm 3 m/s 650 mmHg 53%
    17:00 +27°C° 0,3 mm 3 m/s 649 mmHg 55%
    18:00 +25°C° 0,5 mm 3 m/s 649 mmHg 63%
    19:00 +23°C° 0,5 mm 2 m/s 649 mmHg 70%
    20:00 +22°C° 0,5 mm 1 m/s 650 mmHg 78%
    21:00 +21°C° 0,4 mm 1 m/s 650 mmHg 80%
    22:00 +21°C° 0,4 mm 1 m/s 650 mmHg 82%
    23:00 +20°C° 0,4 mm 1 m/s 650 mmHg 83%

    27 Fevereiro, Terça-feira

    Tempo Temperatura Precipitação Vento Pressão Humidade
    00:00 +20°C° 0,1 mm 1 m/s 650 mmHg 83%
    01:00 +20°C° 0,1 mm 1 m/s 650 mmHg 83%
    02:00 +19°C° 0,1 mm 1 m/s 649 mmHg 83%
    03:00 +19°C° 0 mm 1 m/s 649 mmHg 84%
    04:00 +19°C° 0 mm 1 m/s 649 mmHg 85%
    05:00 +18°C° 0 mm 1 m/s 649 mmHg 85%
    06:00 +20°C° 0 mm 1 m/s 650 mmHg 80%
    07:00 +21°C° 0 mm 1 m/s 650 mmHg 75%
    08:00 +22°C° 0 mm 1 m/s 651 mmHg 70%
    09:00 +24°C° 0,1 mm 2 m/s 651 mmHg 65%
    10:00 +25°C° 0,1 mm 2 m/s 652 mmHg 59%
    11:00 +27°C° 0,1 mm 3 m/s 652 mmHg 53%
    12:00 +27°C° 0,4 mm 3 m/s 651 mmHg 52%
    13:00 +28°C° 0,4 mm 3 m/s 651 mmHg 51%
    14:00 +28°C° 0,4 mm 3 m/s 650 mmHg 51%
    15:00 +28°C° 0,6 mm 3 m/s 650 mmHg 54%
    16:00 +27°C° 0,6 mm 3 m/s 649 mmHg 57%
    17:00 +26°C° 0,6 mm 3 m/s 649 mmHg 61%
    18:00 +25°C° 1 mm 2 m/s 649 mmHg 69%
    19:00 +23°C° 1 mm 1 m/s 649 mmHg 76%
    20:00 +21°C° 1 mm 1 m/s 649 mmHg 84%
    21:00 +21°C° 0,6 mm 1 m/s 650 mmHg 85%
    22:00 +20°C° 0,6 mm 1 m/s 650 mmHg 85%
    23:00 +20°C° 0,6 mm 1 m/s 650 mmHg 85%

    28 Fevereiro, Quarta-feira

    Tempo Temperatura Precipitação Vento Pressão Humidade
    00:00 +20°C° 0,1 mm 1 m/s 650 mmHg 85%
    01:00 +20°C° 0,1 mm 1 m/s 650 mmHg 86%
    02:00 +17°C° 0,1 mm 0 m/s 649 mmHg 86%
    03:00 +17°C° 0,2 mm 0 m/s 649 mmHg 87%
    04:00 +17°C° 0,2 mm 0 m/s 649 mmHg 88%
    05:00 +17°C° 0,2 mm 0 m/s 649 mmHg 88%
    06:00 +20°C° 0,2 mm 1 m/s 650 mmHg 86%
    07:00 +21°C° 0,2 mm 1 m/s 651 mmHg 84%
    08:00 +21°C° 0,2 mm 1 m/s 651 mmHg 82%
    09:00 +21°C° 0,2 mm 2 m/s 651 mmHg 77%
    10:00 +24°C° 0,2 mm 2 m/s 652 mmHg 72%
    11:00 +25°C° 0,2 mm 2 m/s 652 mmHg 68%
    12:00 +25°C° 0,4 mm 2 m/s 651 mmHg 66%
    13:00 +26°C° 0,4 mm 2 m/s 651 mmHg 65%
    14:00 +26°C° 0,4 mm 3 m/s 650 mmHg 64%
    15:00 +26°C° 0,4 mm 3 m/s 650 mmHg 65%
    16:00 +25°C° 0,4 mm 2 m/s 649 mmHg 66%
    17:00 +25°C° 0,4 mm 2 m/s 649 mmHg 67%
    18:00 +24°C° 0,3 mm 2 m/s 649 mmHg 73%
    19:00 +22°C° 0,3 mm 1 m/s 649 mmHg 79%
    20:00 +21°C° 0,3 mm 1 m/s 650 mmHg 85%
    21:00 +21°C° 0,2 mm 1 m/s 650 mmHg 86%
    22:00 +18°C° 0,2 mm 0 m/s 650 mmHg 87%
    23:00 +18°C° 0,2 mm 0 m/s 651 mmHg 89%
    Mostrar mais